ONEWEB-0305, 49093

Orbit data source: Space-Track

ONEWEB-0305, 49093 is a payload satellite owned by One Web (NAA) (UK) in LEO that was launched on Sat, 21 Aug 2021 UTC via a SOYUZ-2-1B launch vehicle from the Tyuratam Missile And Space Complex (TTMTR). Payload-class satellites include a variety of spacecraft equipped with specific instruments for various scientific and technological missions. These include communications satellites like Starlink; space stations such as the ISS; scientific satellites like the Hubble; Earth observation satellites from companies like Planet Labs, Umbra, and HawkEye 360; GPS; miniature CubeSats for education and research; and military/defense satellites.

Loading next visibility...
Identifier
49093, 2021-075U
Orbit
LEO
Country
Flag of UKUK
Related business
Manufacturer
One Web
Mission
Operational Commercial Communications
Bus & Motor
ARROW, Unknown motor
Mass
148 kg wet, ~140 kg dry
Launch date (UTC)
2021-08-21 (5 years ago)
Launch vehicle
SOYUZ-2-1B
Launch site
Tyuratam Missile And Space Complex (TTMTR)
Object type
Payload
Rocket body
Debris
Shape & HBR
Trap Box + 2 Pan, 6.7 m
Radar Cross Section
3.464 m², Large (>1 m²)

Expand to show TLE details & history
Last TLE update: 6 hours ago

TLE from 6 hours ago
0 ONEWEB-0305
1 49093U 21075U   26130.19350863  .00000080  00000-0  17313-3 0  9993
2 49093  87.9174  13.4044 0001798  95.4011 264.7326 13.17649719228600
Epoch: 2026-05-10T04:38Z
TLE epoch observation values (Epoch: 2026-05-10T04:38:39.145Z)
Latitude
Longitude
75.7412°
Altitude
1,196.734 km
Speed
7.255 km/s
True Right ascension
00h 53m 37s
True Declination
0° 00' 00"
Sunlit
Object was in daylight at epoch
Visualization orbit readout
Latitude
Unknown
Longitude
Unknown
Altitude
Unknown
Speed
Unknown
Apparent Right ascension
Unknown
Apparent Declination
Unknown
Sunlit
N/A
Visualization observer readout
Local Sidereal Time
18:57:27
Azimuth
Unknown
Elevation
Unknown
Doppler factor
Unknown
Orbital elements
Apogee altitude
1,192.18 km
Perigee altitude
1,189.458 km
Semi-major axis
7,568.956 km
Eccentricity
0.00018
Inclination
87.9174°
RAAN
13.4044°
Arg. of periapsis
95.4011°
True anomaly
264.71208°
Mean anomaly
264.7326°
Eccentric anomaly
264.72234°
Mean motion
3.29601 °/min
Orbital period
109.22 mins
BSTAR
0.00017313
Loading maneuver chart data...
Computing Atmospheric mass density...
Loading historical data...
Loading historical data...
Loading historical data...
Loading historical data...
Loading historical data...
Loading historical data...
Loading historical data...

Documentation

Showing up to 5 results
|